,,,PA_Meas_PMT16A,,PR_Meas_QMR101_102,,RH_Meas_QMH101,,SR_Meas_QMS101,,TA_Meas_QMH101,,GenWind,,GenWind,
date,time,status,PA,status,PR,status,RH,status,SR,status,TA,status,DirAvg,status,SpdAvg,
2009-07-31, 00:00:05,VALID,1010.36,VALID,0,VALID,93.8807,VALID,0,VALID,22.5429,VALID,295,VALID,0,
2009-07-31, 00:01:05,VALID,1010.35,VALID,0,VALID,93.9645,VALID,0,VALID,22.5429,VALID,295,VALID,0,
2009-07-31, 00:02:05,VALID,1010.38,VALID,0,VALID,94.0179,VALID,0,VALID,22.5429,VALID,313,VALID,0,
2009-07-31, 00:03:05,VALID,1010.39,VALID,0,VALID,94.056,VALID,0,VALID,22.5446,VALID,336,VALID,0,
2009-07-31, 00:04:05,VALID,1010.39,VALID,0,VALID,94.0942,VALID,0,VALID,22.5039,VALID,336,VALID,0,
2009-07-31, 00:05:05,VALID,1010.37,VALID,0,VALID,94.1323,VALID,0,VALID,22.5039,VALID,336,VALID,0,
2009-07-31, 00:06:05,VALID,1010.37,VALID,0,VALID,94.0713,VALID,0,VALID,22.465,VALID,337,VALID,0,
2009-07-31, 00:07:05,VALID,1010.36,VALID,0,VALID,94.0637,VALID,0,VALID,22.4455,VALID,337,VALID,0,
2009-07-31, 00:08:04,VALID,1010.33,VALID,0,VALID,94.0255,VALID,0,VALID,22.4065,VALID,337,VALID,0,
2009-07-31, 00:09:04,VALID,1010.32,VALID,0,VALID,93.9722,VALID,0.105969,VALID,22.3887,VALID,337,VALID,0,
2009-07-31, 00:10:04,VALID,1010.31,VALID,0,VALID,93.934,VALID,0.105969,VALID,22.3481,VALID,337,VALID,0,
2009-07-31, 00:11:04,VALID,1010.33,VALID,0,VALID,93.9264,VALID,0,VALID,22.3286,VALID,337,VALID,0,
2009-07-31, 00:12:04,VALID,1010.35,VALID,0,VALID,93.9188,VALID,0.105969,VALID,22.3286,VALID,337,VALID,0,
2009-07-31, 00:13:04,VALID,1010.36,VALID,0,VALID,93.9874,VALID,0.105969,VALID,22.3091,VALID,337,VALID,0,
2009-07-31, 00:14:04,VALID,1010.34,VALID,0,VALID,94.0637,VALID,0,VALID,22.3303,VALID,337,VALID,0,
2009-07-31, 00:15:04,VALID,1010.37,VALID,0,VALID,94.1171,VALID,0,VALID,22.3286,VALID,337,VALID,0,
2009-07-31, 00:16:04,VALID,1010.37,VALID,0,VALID,94.1247,VALID,0,VALID,22.3108,VALID,337,VALID,0,
2009-07-31, 00:17:04,VALID,1010.36,VALID,0,VALID,94.1323,VALID,0,VALID,22.2914,VALID,337,VALID,0,
2009-07-31, 00:18:04,VALID,1010.38,VALID,0,VALID,94.1704,VALID,0,VALID,22.2914,VALID,349,VALID,0,
2009-07-31, 00:19:04,VALID,1010.36,VALID,0,VALID,94.2009,VALID,0,VALID,22.2719,VALID,349,VALID,0.322266,
2009-07-31, 00:20:04,VALID,1010.34,VALID,0,VALID,94.2619,VALID,0,VALID,22.2524,VALID,349,VALID,0.358594,
2009-07-31, 00:21:04,VALID,1010.32,VALID,0,VALID,94.2924,VALID,0,VALID,22.2329,VALID,349,VALID,0,
2009-07-31, 00:22:04,VALID,1010.3,VALID,0,VALID,94.3306,VALID,0,VALID,22.2329,VALID,349,VALID,0.028125,
2009-07-31, 00:23:04,VALID,1010.28,VALID,0,VALID,94.3382,VALID,0,VALID,22.2134,VALID,349,VALID,0,
2009-07-31, 00:24:04,VALID,1010.26,VALID,0,VALID,94.3306,VALID,0,VALID,22.194,VALID,349,VALID,0,
2009-07-31, 00:25:04,VALID,1010.27,VALID,0,VALID,94.3611,VALID,0,VALID,22.194,VALID,349,VALID,0,
2009-07-31, 00:26:04,VALID,1010.27,VALID,0,VALID,94.3992,VALID,0,VALID,22.1728,VALID,349,VALID,0.342578,
2009-07-31, 00:27:04,VALID,1010.25,VALID,0,VALID,94.4297,VALID,0,VALID,22.1728,VALID,349,VALID,0.476172,
2009-07-31, 00:28:04,VALID,1010.24,VALID,0,VALID,94.4831,VALID,0,VALID,22.2134,VALID,349,VALID,0,
2009-07-31, 00:29:04,VALID,1010.24,VALID,0,VALID,94.4755,VALID,0,VALID,22.1745,VALID,349,VALID,0,
2009-07-31, 00:30:04,VALID,1010.21,VALID,0,VALID,94.4983,VALID,0,VALID,22.1745,VALID,349,VALID,0,
2009-07-31, 00:31:04,VALID,1010.2,VALID,0,VALID,94.5212,VALID,0,VALID,22.155,VALID,349,VALID,0,
2009-07-31, 00:32:04,VALID,1010.19,VALID,0,VALID,94.5212,VALID,0,VALID,22.1355,VALID,349,VALID,0,
2009-07-31, 00:33:04,VALID,1010.22,VALID,0,VALID,94.4907,VALID,0,VALID,22.0966,VALID,349,VALID,0,
2009-07-31, 00:34:04,VALID,1010.24,VALID,0,VALID,94.4831,VALID,0,VALID,22.0576,VALID,349,VALID,0,
2009-07-31, 00:35:04,VALID,1010.23,VALID,0,VALID,94.5212,VALID,0,VALID,22.0771,VALID,349,VALID,0,
2009-07-31, 00:36:04,VALID,1010.25,VALID,0,VALID,94.5746,VALID,0,VALID,22.1161,VALID,349,VALID,0,
2009-07-31, 00:37:04,VALID,1010.25,VALID,0,VALID,94.6051,VALID,0,VALID,22.1355,VALID,349,VALID,0,
2009-07-31, 00:38:04,VALID,1010.23,VALID,0,VALID,94.628,VALID,0,VALID,22.0949,VALID,349,VALID,0,
2009-07-31, 00:39:04,VALID,1010.21,VALID,0,VALID,94.6508,VALID,0,VALID,22.1161,VALID,349,VALID,0,
2009-07-31, 00:40:04,VALID,1010.19,VALID,0,VALID,94.6508,VALID,0,VALID,22.1177,VALID,349,VALID,0,
2009-07-31, 00:41:04,VALID,1010.2,VALID,0,VALID,94.6585,VALID,0,VALID,22.0771,VALID,349,VALID,0,
2009-07-31, 00:42:04,VALID,1010.2,VALID,0,VALID,94.6661,VALID,0,VALID,22.0576,VALID,349,VALID,0,
2009-07-31, 00:43:04,VALID,1010.2,VALID,0,VALID,94.6661,VALID,0,VALID,22.0382,VALID,349,VALID,0,
2009-07-31, 00:44:04,VALID,1010.21,VALID,0,VALID,94.6814,VALID,0,VALID,22.0576,VALID,349,VALID,0,
2009-07-31, 00:45:04,VALID,1010.2,VALID,0,VALID,94.7119,VALID,0,VALID,22.0576,VALID,349,VALID,0,
2009-07-31, 00:46:04,VALID,1010.23,VALID,0,VALID,94.75,VALID,0.105969,VALID,22.0754,VALID,349,VALID,0,
2009-07-31, 00:47:04,VALID,1010.24,VALID,0,VALID,94.7424,VALID,0.105969,VALID,22.0754,VALID,349,VALID,0,
2009-07-31, 00:48:04,VALID,1010.25,VALID,0,VALID,94.7729,VALID,0.105969,VALID,22.0754,VALID,349,VALID,0,
2009-07-31, 00:49:04,VALID,1010.26,VALID,0,VALID,94.7805,VALID,0,VALID,22.056,VALID,349,VALID,0,
2009-07-31, 00:50:04,VALID,1010.25,VALID,0,VALID,94.7957,VALID,0.105969,VALID,22.056,VALID,349,VALID,0,
2009-07-31, 00:51:04,VALID,1010.24,VALID,0,VALID,94.7957,VALID,0,VALID,22.056,VALID,350,VALID,0,
2009-07-31, 00:52:04,VALID,1010.21,VALID,0,VALID,94.8034,VALID,0.105969,VALID,22.0365,VALID,350,VALID,0,
2009-07-31, 00:53:04,VALID,1010.2,VALID,0,VALID,94.8186,VALID,0,VALID,22.0365,VALID,350,VALID,0,
2009-07-31, 00:54:04,VALID,1010.2,VALID,0,VALID,94.8262,VALID,0,VALID,22.017,VALID,350,VALID,0,
2009-07-31, 00:55:04,VALID,1010.2,VALID,0,VALID,94.8034,VALID,0,VALID,22.017,VALID,350,VALID,0,
2009-07-31, 00:56:04,VALID,1010.24,VALID,0,VALID,94.8034,VALID,0.105969,VALID,22.017,VALID,350,VALID,0,
2009-07-31, 00:57:04,VALID,1010.21,VALID,0,VALID,94.8186,VALID,0,VALID,21.9975,VALID,350,VALID,0,
2009-07-31, 00:58:04,VALID,1010.23,VALID,0,VALID,94.8491,VALID,0.105969,VALID,21.9764,VALID,349,VALID,0,
2009-07-31, 00:59:04,VALID,1010.19,VALID,0,VALID,94.8415,VALID,0,VALID,21.9975,VALID,349,VALID,0,
2009-07-31, 01:00:04,VALID,1010.2,VALID,0,VALID,94.8339,VALID,0.105969,VALID,21.9781,VALID,349,VALID,0,
2009-07-31, 01:01:04,VALID,1010.18,VALID,0,VALID,94.8186,VALID,0,VALID,21.9603,VALID,349,VALID,0,
2009-07-31, 01:02:04,VALID,1010.19,VALID,0,VALID,94.8186,VALID,0,VALID,21.9408,VALID,349,VALID,0,
2009-07-31, 01:03:04,VALID,1010.21,VALID,0,VALID,94.8186,VALID,0,VALID,21.9603,VALID,349,VALID,0,
2009-07-31, 01:04:04,VALID,1010.24,VALID,0,VALID,94.811,VALID,0,VALID,21.9213,VALID,349,VALID,0,
2009-07-31, 01:05:04,VALID,1010.23,VALID,0,VALID,94.8415,VALID,0,VALID,21.9018,VALID,349,VALID,0,
2009-07-31, 01:06:04,VALID,1010.21,VALID,0,VALID,94.7957,VALID,0,VALID,21.8824,VALID,349,VALID,0,
2009-07-31, 01:07:04,VALID,1010.21,VALID,0,VALID,94.811,VALID,0,VALID,21.8629,VALID,349,VALID,0,
2009-07-31, 01:08:04,VALID,1010.24,VALID,0,VALID,94.7957,VALID,0,VALID,21.8629,VALID,349,VALID,0,
2009-07-31, 01:09:04,VALID,1010.24,VALID,0,VALID,94.8034,VALID,0,VALID,21.8629,VALID,349,VALID,0,
2009-07-31, 01:10:04,VALID,1010.22,VALID,0,VALID,94.8034,VALID,0,VALID,21.8629,VALID,349,VALID,0,
2009-07-31, 01:11:04,VALID,1010.22,VALID,0,VALID,94.8339,VALID,0,VALID,21.8645,VALID,349,VALID,0,
2009-07-31, 01:12:04,VALID,1010.22,VALID,0,VALID,94.8186,VALID,0,VALID,21.8629,VALID,349,VALID,0,
2009-07-31, 01:13:04,VALID,1010.23,VALID,0,VALID,94.8491,VALID,0,VALID,21.884,VALID,349,VALID,0,
2009-07-31, 01:14:04,VALID,1010.19,VALID,0,VALID,94.8568,VALID,0,VALID,21.8434,VALID,349,VALID,0,
2009-07-31, 01:15:04,VALID,1010.2,VALID,0,VALID,94.8415,VALID,0,VALID,21.8434,VALID,349,VALID,0,
2009-07-31, 01:16:04,VALID,1010.2,VALID,0,VALID,94.872,VALID,0.105969,VALID,21.8223,VALID,349,VALID,0,
2009-07-31, 01:17:04,VALID,1010.21,VALID,0,VALID,94.8644,VALID,0,VALID,21.8223,VALID,349,VALID,0,
2009-07-31, 01:18:04,VALID,1010.2,VALID,0,VALID,94.8568,VALID,0,VALID,21.8028,VALID,349,VALID,0,
2009-07-31, 01:19:04,VALID,1010.2,VALID,0,VALID,94.8644,VALID,0.105969,VALID,21.7833,VALID,349,VALID,0,
2009-07-31, 01:20:04,VALID,1010.19,VALID,0,VALID,94.8644,VALID,0.105969,VALID,21.7639,VALID,349,VALID,0,
2009-07-31, 01:21:04,VALID,1010.2,VALID,0,VALID,94.872,VALID,0,VALID,21.7639,VALID,349,VALID,0,
2009-07-31, 01:22:04,VALID,1010.17,VALID,0,VALID,94.8644,VALID,0.105969,VALID,21.7249,VALID,349,VALID,0,
2009-07-31, 01:23:04,VALID,1010.19,VALID,0,VALID,94.872,VALID,0,VALID,21.7444,VALID,349,VALID,0,
2009-07-31, 01:24:04,VALID,1010.18,VALID,0,VALID,94.9101,VALID,0.105969,VALID,21.7639,VALID,349,VALID,0,
2009-07-31, 01:25:04,VALID,1010.18,VALID,0,VALID,94.9254,VALID,0.105969,VALID,21.7639,VALID,349,VALID,0,
2009-07-31, 01:26:04,VALID,1010.18,VALID,0,VALID,94.9254,VALID,0.105969,VALID,21.7249,VALID,349,VALID,0,
2009-07-31, 01:27:04,VALID,1010.13,VALID,0,VALID,94.933,VALID,0.105969,VALID,21.7249,VALID,349,VALID,0,
2009-07-31, 01:28:04,VALID,1010.11,VALID,0,VALID,94.9483,VALID,0.105969,VALID,21.7249,VALID,349,VALID,0,
2009-07-31, 01:29:04,VALID,1010.12,VALID,0,VALID,94.9711,VALID,0,VALID,21.7444,VALID,349,VALID,0,
2009-07-31, 01:30:04,VALID,1010.09,VALID,0,VALID,95.0169,VALID,0.105969,VALID,21.7639,VALID,349,VALID,0,
2009-07-31, 01:31:04,VALID,1010.07,VALID,0,VALID,94.994,VALID,0.105969,VALID,21.686,VALID,349,VALID,0,
2009-07-31, 01:32:04,VALID,1010.1,VALID,0,VALID,94.9864,VALID,0.105969,VALID,21.7054,VALID,349,VALID,0,
2009-07-31, 01:33:04,VALID,1010.09,VALID,0,VALID,94.9864,VALID,0.105969,VALID,21.7249,VALID,349,VALID,0,
2009-07-31, 01:34:04,VALID,1010.08,VALID,0,VALID,95.0245,VALID,0.105969,VALID,21.7444,VALID,349,VALID,0,
2009-07-31, 01:35:04,VALID,1010.1,VALID,0,VALID,95.0474,VALID,0.105969,VALID,21.7444,VALID,349,VALID,0,
2009-07-31, 01:36:04,VALID,1010.11,VALID,0,VALID,95.0398,VALID,0.105969,VALID,21.7444,VALID,349,VALID,0,
2009-07-31, 01:37:04,VALID,1010.1,VALID,0,VALID,95.0474,VALID,0.105969,VALID,21.7639,VALID,349,VALID,0,
2009-07-31, 01:38:04,VALID,1010.08,VALID,0,VALID,95.0626,VALID,0,VALID,21.7833,VALID,349,VALID,0,
2009-07-31, 01:39:04,VALID,1010.12,VALID,0,VALID,95.0779,VALID,0.105969,VALID,21.7639,VALID,349,VALID,0,
2009-07-31, 01:40:04,VALID,1010.11,VALID,0,VALID,95.0703,VALID,0,VALID,21.7639,VALID,349,VALID,0,
2009-07-31, 01:41:04,VALID,1010.1,VALID,0,VALID,95.0855,VALID,0.105969,VALID,21.7444,VALID,349,VALID,0,
2009-07-31, 01:42:04,VALID,1010.06,VALID,0,VALID,95.055,VALID,0.105969,VALID,21.7444,VALID,349,VALID,0,
2009-07-31, 01:43:04,VALID,1010.03,VALID,0,VALID,95.0703,VALID,0.105969,VALID,21.7249,VALID,349,VALID,0,
2009-07-31, 01:44:04,VALID,1010.05,VALID,0,VALID,95.0626,VALID,0.105969,VALID,21.7249,VALID,349,VALID,0,
2009-07-31, 01:45:04,VALID,1010.03,VALID,0,VALID,95.0703,VALID,0.105969,VALID,21.7249,VALID,349,VALID,0,
2009-07-31, 01:46:04,VALID,1010.01,VALID,0,VALID,95.055,VALID,0.105969,VALID,21.7249,VALID,349,VALID,0,
2009-07-31, 01:47:04,VALID,1010.03,VALID,0,VALID,95.0779,VALID,0.105969,VALID,21.7249,VALID,349,VALID,0,
2009-07-31, 01:48:04,VALID,1010.02,VALID,0,VALID,95.0703,VALID,0.105969,VALID,21.7249,VALID,349,VALID,0,
2009-07-31, 01:49:04,VALID,1010,VALID,0,VALID,95.0703,VALID,0.105969,VALID,21.7054,VALID,349,VALID,0,
2009-07-31, 01:50:04,VALID,1009.97,VALID,0,VALID,95.0779,VALID,0.105969,VALID,21.7054,VALID,349,VALID,0,
2009-07-31, 01:51:04,VALID,1009.96,VALID,0,VALID,95.055,VALID,0.105969,VALID,21.7054,VALID,349,VALID,0,
2009-07-31, 01:52:04,VALID,1009.95,VALID,0,VALID,95.0626,VALID,0.105969,VALID,21.686,VALID,349,VALID,0,
2009-07-31, 01:53:04,VALID,1009.93,VALID,0,VALID,95.0779,VALID,0.105969,VALID,21.647,VALID,349,VALID,0,
2009-07-31, 01:54:04,VALID,1009.95,VALID,0,VALID,95.0626,VALID,0,VALID,21.6276,VALID,349,VALID,0,
2009-07-31, 01:55:04,VALID,1009.94,VALID,0,VALID,95.0398,VALID,0,VALID,21.5886,VALID,349,VALID,0,
2009-07-31, 01:56:04,VALID,1009.93,VALID,0,VALID,95.0398,VALID,0.105969,VALID,21.5691,VALID,349,VALID,0,
2009-07-31, 01:57:04,VALID,1009.91,VALID,0,VALID,95.0321,VALID,0.105969,VALID,21.5691,VALID,349,VALID,0,
2009-07-31, 01:58:04,VALID,1009.9,VALID,0,VALID,95.0321,VALID,0.105969,VALID,21.5497,VALID,349,VALID,0,
2009-07-31, 01:59:04,VALID,1009.92,VALID,0,VALID,95.0474,VALID,0.105969,VALID,21.5886,VALID,349,VALID,0,
2009-07-31, 02:00:04,VALID,1009.92,VALID,0,VALID,95.0398,VALID,0,VALID,21.6081,VALID,349,VALID,0,
2009-07-31, 02:01:04,VALID,1009.93,VALID,0,VALID,95.0703,VALID,0,VALID,21.6292,VALID,349,VALID,0,
2009-07-31, 02:02:04,VALID,1009.95,VALID,0,VALID,95.0931,VALID,0.105969,VALID,21.6081,VALID,349,VALID,0,
2009-07-31, 02:03:04,VALID,1009.93,VALID,0,VALID,95.1008,VALID,0,VALID,21.5886,VALID,349,VALID,0,
2009-07-31, 02:04:04,VALID,1009.95,VALID,0,VALID,95.0855,VALID,0,VALID,21.5691,VALID,349,VALID,0,
2009-07-31, 02:05:04,VALID,1009.91,VALID,0,VALID,95.1008,VALID,0,VALID,21.548,VALID,349,VALID,0,
2009-07-31, 02:06:04,VALID,1009.9,VALID,0,VALID,95.116,VALID,0,VALID,21.5497,VALID,349,VALID,0,
2009-07-31, 02:07:04,VALID,1009.89,VALID,0,VALID,95.1084,VALID,0.105969,VALID,21.5497,VALID,349,VALID,0,
2009-07-31, 02:08:04,VALID,1009.9,VALID,0,VALID,95.1084,VALID,0.105969,VALID,21.5302,VALID,349,VALID,0,
2009-07-31, 02:09:04,VALID,1009.87,VALID,0,VALID,95.116,VALID,0,VALID,21.5302,VALID,349,VALID,0,
2009-07-31, 02:10:04,VALID,1009.91,VALID,0,VALID,95.1236,VALID,0,VALID,21.5497,VALID,349,VALID,0,
2009-07-31, 02:11:04,VALID,1009.91,VALID,0,VALID,95.1465,VALID,0,VALID,21.5497,VALID,349,VALID,0,
2009-07-31, 02:12:04,VALID,1009.88,VALID,0,VALID,95.1465,VALID,0.105969,VALID,21.5302,VALID,349,VALID,0,
2009-07-31, 02:13:04,VALID,1009.88,VALID,0,VALID,95.1542,VALID,0,VALID,21.5302,VALID,349,VALID,0,
2009-07-31, 02:14:04,VALID,1009.89,VALID,0,VALID,95.1618,VALID,0.105969,VALID,21.5497,VALID,349,VALID,0,
2009-07-31, 02:15:04,VALID,1009.89,VALID,0,VALID,95.177,VALID,0.105969,VALID,21.5302,VALID,349,VALID,0,
2009-07-31, 02:16:04,VALID,1009.85,VALID,0,VALID,95.1923,VALID,0,VALID,21.5318,VALID,349,VALID,0,
2009-07-31, 02:17:04,VALID,1009.86,VALID,0,VALID,95.1847,VALID,0,VALID,21.5124,VALID,349,VALID,0,
2009-07-31, 02:18:04,VALID,1009.89,VALID,0,VALID,95.1999,VALID,0,VALID,21.5124,VALID,349,VALID,0,
2009-07-31, 02:19:04,VALID,1009.9,VALID,0,VALID,95.2228,VALID,0,VALID,21.5124,VALID,349,VALID,0,
2009-07-31, 02:20:04,VALID,1009.88,VALID,0,VALID,95.2075,VALID,0,VALID,21.4929,VALID,349,VALID,0,
2009-07-31, 02:21:04,VALID,1009.89,VALID,0,VALID,95.2152,VALID,0,VALID,21.4929,VALID,349,VALID,0,
2009-07-31, 02:22:04,VALID,1009.86,VALID,0,VALID,95.2228,VALID,0,VALID,21.4734,VALID,349,VALID,0,
2009-07-31, 02:23:04,VALID,1009.87,VALID,0,VALID,95.2304,VALID,0,VALID,21.4734,VALID,349,VALID,0,
2009-07-31, 02:24:04,VALID,1009.85,VALID,0,VALID,95.2304,VALID,0,VALID,21.475,VALID,349,VALID,0,
2009-07-31, 02:25:04,VALID,1009.82,VALID,0,VALID,95.238,VALID,0,VALID,21.4539,VALID,349,VALID,0,
2009-07-31, 02:26:04,VALID,1009.82,VALID,0,VALID,95.238,VALID,0,VALID,21.4539,VALID,349,VALID,0,
2009-07-31, 02:27:04,VALID,1009.83,VALID,0,VALID,95.2609,VALID,0,VALID,21.4345,VALID,349,VALID,0,
2009-07-31, 02:28:04,VALID,1009.83,VALID,0,VALID,95.2533,VALID,0,VALID,21.4345,VALID,349,VALID,0,
2009-07-31, 02:29:04,VALID,1009.83,VALID,0,VALID,95.238,VALID,0,VALID,21.4345,VALID,349,VALID,0,
2009-07-31, 02:30:04,VALID,1009.84,VALID,0,VALID,95.2304,VALID,0,VALID,21.415,VALID,349,VALID,0,
2009-07-31, 02:31:04,VALID,1009.85,VALID,0,VALID,95.2609,VALID,0,VALID,21.4345,VALID,349,VALID,0,
2009-07-31, 02:32:04,VALID,1009.82,VALID,0,VALID,95.2609,VALID,0,VALID,21.415,VALID,349,VALID,0,
2009-07-31, 02:33:04,VALID,1009.81,VALID,0,VALID,95.2457,VALID,0,VALID,21.4345,VALID,349,VALID,0,
2009-07-31, 02:34:04,VALID,1009.82,VALID,0,VALID,95.2685,VALID,0,VALID,21.4134,VALID,349,VALID,0,
2009-07-31, 02:35:04,VALID,1009.8,VALID,0,VALID,95.2685,VALID,0,VALID,21.415,VALID,349,VALID,0,
2009-07-31, 02:36:04,VALID,1009.81,VALID,0,VALID,95.2838,VALID,0,VALID,21.415,VALID,349,VALID,0,
2009-07-31, 02:37:04,VALID,1009.81,VALID,0,VALID,95.3067,VALID,0,VALID,21.4345,VALID,349,VALID,0,
2009-07-31, 02:38:04,VALID,1009.8,VALID,0,VALID,95.3067,VALID,0,VALID,21.4345,VALID,349,VALID,0,
2009-07-31, 02:39:04,VALID,1009.79,VALID,0,VALID,95.3067,VALID,0,VALID,21.4345,VALID,349,VALID,0,
2009-07-31, 02:40:04,VALID,1009.81,VALID,0,VALID,95.3219,VALID,0,VALID,21.4556,VALID,349,VALID,0,
2009-07-31, 02:41:04,VALID,1009.82,VALID,0,VALID,95.3219,VALID,0,VALID,21.415,VALID,349,VALID,0,
2009-07-31, 02:42:04,VALID,1009.8,VALID,0,VALID,95.3372,VALID,0,VALID,21.3955,VALID,349,VALID,0,
2009-07-31, 02:43:04,VALID,1009.76,VALID,0,VALID,95.3219,VALID,0,VALID,21.376,VALID,349,VALID,0,
2009-07-31, 02:44:04,VALID,1009.75,VALID,0,VALID,95.3372,VALID,0,VALID,21.3955,VALID,349,VALID,0,
2009-07-31, 02:45:04,VALID,1009.72,VALID,0,VALID,95.3524,VALID,0,VALID,21.415,VALID,349,VALID,0,
2009-07-31, 02:46:04,VALID,1009.71,VALID,0,VALID,95.3372,VALID,0,VALID,21.3955,VALID,349,VALID,0,
2009-07-31, 02:47:04,VALID,1009.71,VALID,0,VALID,95.36,VALID,0,VALID,21.3939,VALID,349,VALID,0,
2009-07-31, 02:48:04,VALID,1009.73,VALID,0,VALID,95.3753,VALID,0,VALID,21.415,VALID,349,VALID,0,
2009-07-31, 02:49:04,VALID,1009.73,VALID,0,VALID,95.3753,VALID,0,VALID,21.415,VALID,349,VALID,0,
2009-07-31, 02:50:04,VALID,1009.74,VALID,0,VALID,95.3829,VALID,0,VALID,21.3939,VALID,349,VALID,0,
2009-07-31, 02:51:04,VALID,1009.75,VALID,0,VALID,95.3829,VALID,0,VALID,21.3955,VALID,349,VALID,0,
2009-07-31, 02:52:04,VALID,1009.74,VALID,0,VALID,95.3829,VALID,0,VALID,21.3955,VALID,349,VALID,0,
2009-07-31, 02:53:04,VALID,1009.73,VALID,0,VALID,95.3829,VALID,0,VALID,21.3955,VALID,349,VALID,0,
2009-07-31, 02:54:04,VALID,1009.73,VALID,0,VALID,95.3905,VALID,0,VALID,21.376,VALID,349,VALID,0,
2009-07-31, 02:55:04,VALID,1009.73,VALID,0,VALID,95.4058,VALID,0,VALID,21.355,VALID,349,VALID,0,
2009-07-31, 02:56:04,VALID,1009.75,VALID,0,VALID,95.3982,VALID,0,VALID,21.3566,VALID,349,VALID,0,
2009-07-31, 02:57:04,VALID,1009.73,VALID,0,VALID,95.4211,VALID,0,VALID,21.3566,VALID,349,VALID,0,
2009-07-31, 02:58:04,VALID,1009.73,VALID,0,VALID,95.3829,VALID,0,VALID,21.3371,VALID,349,VALID,0,
2009-07-31, 02:59:04,VALID,1009.71,VALID,0,VALID,95.4134,VALID,0,VALID,21.3371,VALID,349,VALID,0,
2009-07-31, 03:00:04,VALID,1009.7,VALID,0,VALID,95.4134,VALID,0,VALID,21.3371,VALID,349,VALID,0,
2009-07-31, 03:01:04,VALID,1009.73,VALID,0,VALID,95.4058,VALID,0,VALID,21.3176,VALID,349,VALID,0,
2009-07-31, 03:02:04,VALID,1009.73,VALID,0,VALID,95.4134,VALID,0,VALID,21.3355,VALID,349,VALID,0,
2009-07-31, 03:03:04,VALID,1009.72,VALID,0,VALID,95.4287,VALID,0,VALID,21.3566,VALID,349,VALID,0,
2009-07-31, 03:04:04,VALID,1009.73,VALID,0,VALID,95.4363,VALID,0,VALID,21.316,VALID,349,VALID,0,
2009-07-31, 03:05:04,VALID,1009.7,VALID,0,VALID,95.4439,VALID,0,VALID,21.3176,VALID,349,VALID,0,
2009-07-31, 03:06:04,VALID,1009.69,VALID,0,VALID,95.4516,VALID,0,VALID,21.2982,VALID,349,VALID,0,
2009-07-31, 03:07:04,VALID,1009.73,VALID,0,VALID,95.4516,VALID,0,VALID,21.2982,VALID,349,VALID,0,
2009-07-31, 03:08:04,VALID,1009.72,VALID,0,VALID,95.4516,VALID,0,VALID,21.2576,VALID,349,VALID,0,
2009-07-31, 03:09:04,VALID,1009.72,VALID,0,VALID,95.4592,VALID,0,VALID,21.2381,VALID,349,VALID,0,
2009-07-31, 03:10:04,VALID,1009.72,VALID,0,VALID,95.4668,VALID,0,VALID,21.2592,VALID,349,VALID,0,
2009-07-31, 03:11:04,VALID,1009.76,VALID,0,VALID,95.4439,VALID,0,VALID,21.2397,VALID,349,VALID,0,
2009-07-31, 03:12:04,VALID,1009.72,VALID,0,VALID,95.4516,VALID,0,VALID,21.2008,VALID,349,VALID,0,
2009-07-31, 03:13:04,VALID,1009.74,VALID,0,VALID,95.4439,VALID,0,VALID,21.2008,VALID,349,VALID,0,
2009-07-31, 03:14:04,VALID,1009.73,VALID,0,VALID,95.4668,VALID,0,VALID,21.1813,VALID,349,VALID,0,
2009-07-31, 03:15:04,VALID,1009.73,VALID,0,VALID,95.4668,VALID,0,VALID,21.1797,VALID,349,VALID,0,
2009-07-31, 03:16:04,VALID,1009.75,VALID,0,VALID,95.4821,VALID,0,VALID,21.1603,VALID,349,VALID,0,
2009-07-31, 03:17:04,VALID,1009.75,VALID,0,VALID,95.4668,VALID,0,VALID,21.1813,VALID,349,VALID,0,
2009-07-31, 03:18:04,VALID,1009.76,VALID,0,VALID,95.4744,VALID,0,VALID,21.1603,VALID,349,VALID,0,
2009-07-31, 03:19:04,VALID,1009.79,VALID,0,VALID,95.4744,VALID,0,VALID,21.1813,VALID,349,VALID,0,
2009-07-31, 03:20:04,VALID,1009.79,VALID,0,VALID,95.4744,VALID,0,VALID,21.1424,VALID,349,VALID,0,
2009-07-31, 03:21:04,VALID,1009.79,VALID,0,VALID,95.4973,VALID,0,VALID,21.1424,VALID,349,VALID,0,
2009-07-31, 03:22:04,VALID,1009.78,VALID,0,VALID,95.4821,VALID,0,VALID,21.1408,VALID,349,VALID,0,
2009-07-31, 03:23:04,VALID,1009.78,VALID,0,VALID,95.5049,VALID,0,VALID,21.1424,VALID,349,VALID,0,
2009-07-31, 03:24:04,VALID,1009.8,VALID,0,VALID,95.5049,VALID,0,VALID,21.1424,VALID,349,VALID,0,
2009-07-31, 03:25:04,VALID,1009.82,VALID,0,VALID,95.5049,VALID,0,VALID,21.1019,VALID,349,VALID,0,
2009-07-31, 03:26:04,VALID,1009.81,VALID,0,VALID,95.5049,VALID,0,VALID,21.144,VALID,349,VALID,0,
2009-07-31, 03:27:04,VALID,1009.83,VALID,0,VALID,95.5202,VALID,0,VALID,21.1229,VALID,349,VALID,0,
2009-07-31, 03:28:04,VALID,1009.84,VALID,0,VALID,95.5202,VALID,0,VALID,21.1229,VALID,349,VALID,0,
2009-07-31, 03:29:04,VALID,1009.83,VALID,0,VALID,95.5278,VALID,0,VALID,21.1229,VALID,349,VALID,0,
2009-07-31, 03:30:04,VALID,1009.88,VALID,0,VALID,95.5431,VALID,0,VALID,21.1229,VALID,349,VALID,0,
2009-07-31, 03:31:04,VALID,1009.91,VALID,0,VALID,95.5507,VALID,0.105969,VALID,21.1019,VALID,349,VALID,0,
2009-07-31, 03:32:04,VALID,1009.95,VALID,0,VALID,95.5583,VALID,0.105969,VALID,21.0824,VALID,349,VALID,0,
2009-07-31, 03:33:04,VALID,1009.96,VALID,0,VALID,95.5507,VALID,0.105969,VALID,21.1019,VALID,349,VALID,0,
2009-07-31, 03:34:04,VALID,1009.98,VALID,0,VALID,95.5431,VALID,0.105969,VALID,21.0613,VALID,349,VALID,0,
2009-07-31, 03:35:04,VALID,1010.01,VALID,0,VALID,95.5659,VALID,0.105969,VALID,21.0824,VALID,349,VALID,0,
2009-07-31, 03:36:04,VALID,1009.97,VALID,0,VALID,95.5507,VALID,0.105969,VALID,21.0824,VALID,349,VALID,0,
2009-07-31, 03:37:04,VALID,1009.97,VALID,0,VALID,95.5888,VALID,0.105969,VALID,21.0824,VALID,349,VALID,0,
2009-07-31, 03:38:04,VALID,1009.99,VALID,0,VALID,95.5659,VALID,0,VALID,21.0629,VALID,349,VALID,0,
2009-07-31, 03:39:04,VALID,1009.98,VALID,0,VALID,95.5583,VALID,0,VALID,21.0824,VALID,349,VALID,0,
2009-07-31, 03:40:04,VALID,1010.02,VALID,0,VALID,95.5659,VALID,0.105969,VALID,21.0629,VALID,349,VALID,0,
2009-07-31, 03:41:04,VALID,1010.01,VALID,0,VALID,95.5583,VALID,0.105969,VALID,21.0629,VALID,349,VALID,0,
2009-07-31, 03:42:04,VALID,1009.97,VALID,0,VALID,95.5812,VALID,0.211938,VALID,21.0434,VALID,349,VALID,0,
2009-07-31, 03:43:04,VALID,1009.95,VALID,0,VALID,95.5812,VALID,0.105969,VALID,21.024,VALID,349,VALID,0,
2009-07-31, 03:44:04,VALID,1009.98,VALID,0,VALID,95.5812,VALID,0.105969,VALID,21.0224,VALID,349,VALID,0,
2009-07-31, 03:45:04,VALID,1010.01,VALID,0,VALID,95.5812,VALID,0,VALID,21.0434,VALID,349,VALID,0,
2009-07-31, 03:46:04,VALID,1010.02,VALID,0,VALID,95.5964,VALID,0,VALID,21.0256,VALID,349,VALID,0,
2009-07-31, 03:47:04,VALID,1010.07,VALID,0,VALID,95.6041,VALID,0,VALID,21.0256,VALID,349,VALID,0,
2009-07-31, 03:48:04,VALID,1010.08,VALID,0,VALID,95.5812,VALID,0,VALID,21.0256,VALID,349,VALID,0,
2009-07-31, 03:49:04,VALID,1010.09,VALID,0,VALID,95.5812,VALID,0,VALID,21.024,VALID,349,VALID,0,
2009-07-31, 03:50:04,VALID,1010.1,VALID,0,VALID,95.5964,VALID,0,VALID,21.0256,VALID,349,VALID,0,
2009-07-31, 03:51:04,VALID,1010.1,VALID,0,VALID,95.6041,VALID,0,VALID,21.0256,VALID,349,VALID,0,
2009-07-31, 03:52:04,VALID,1010.1,VALID,0,VALID,95.6041,VALID,0,VALID,21.0645,VALID,349,VALID,0,
2009-07-31, 03:53:04,VALID,1010.08,VALID,0,VALID,95.6346,VALID,0,VALID,21.045,VALID,349,VALID,0,
2009-07-31, 03:54:04,VALID,1010.12,VALID,0,VALID,95.6193,VALID,0,VALID,21.045,VALID,349,VALID,0,
2009-07-31, 03:55:04,VALID,1010.12,VALID,0,VALID,95.6269,VALID,0,VALID,21.0256,VALID,349,VALID,0,